Location: Ostrava
(49.8330°N, 18.2830°E)
Time: 01:34:25
(UTC+01:00)

Transit 2A - All Passes

Search period start: 01 March 2015 00:00
Search period end: 11 March 2015 00:00
Orbit: 592 x 970 km, 66.7° (Epoch: 28 February)

Date Brightness Start Highest point End Pass type
(mag) Time Alt. Az. Time Alt. Az. Time Alt. Az.
01 Mar - 00:47:25 10° NW 00:51:27 17° N 00:55:33 10° NE visible
01 Mar - 02:31:29 10° NNW 02:36:55 28° NNE 02:42:20 10° E visible
01 Mar - 04:14:44 10° NW 04:21:12 82° NE 04:27:26 10° SE visible
01 Mar - 05:58:57 10° NW 06:03:57 24° WSW 06:08:37 10° SSW visible
01 Mar - 18:59:34 10° SSE 19:04:18 28° ESE 19:09:29 10° NE visible
01 Mar - 20:41:20 10° SW 20:47:09 68° NW 20:53:29 10° NE visible
01 Mar - 22:26:43 10° W 22:31:40 25° NNW 22:36:47 10° NNE visible
02 Mar - 00:13:15 10° NW 00:17:14 17° N 00:21:17 10° NE visible
02 Mar - 01:57:43 10° NNW 02:02:49 24° NNE 02:07:57 10° ENE visible
02 Mar - 03:41:00 10° NNW 03:47:24 65° NE 03:53:35 10° SE visible
02 Mar - 05:24:49 10° NW 05:30:25 32° WSW 05:35:41 10° S visible
02 Mar - 18:26:45 10° SSE 18:30:47 21° ESE 18:35:15 10° ENE visible
02 Mar - 20:07:32 10° SW 20:13:22 87° NW 20:19:43 10° NE visible
02 Mar - 21:52:22 10° W 21:57:35 29° NNW 22:03:01 10° NNE visible
02 Mar - 23:38:59 10° NW 23:43:02 17° N 23:47:07 10° NE visible
03 Mar - 01:23:54 10° NNW 01:28:42 22° NNE 01:33:32 10° ENE visible
03 Mar - 03:07:15 10° NNW 03:13:31 52° NE 03:19:36 10° ESE visible
03 Mar - 04:50:50 10° NW 04:56:50 42° WSW 05:02:31 10° S visible
03 Mar - 17:54:21 10° SE 17:57:20 15° ESE 18:00:42 10° ENE visible
03 Mar - 19:33:51 10° SSW 19:39:37 73° ESE 19:45:55 10° NE visible
03 Mar - 21:18:06 10° W 21:23:33 34° NW 21:29:16 10° NNE visible
03 Mar - 23:04:39 10° NW 23:08:50 18° N 23:13:03 10° NNE visible
04 Mar - 00:50:02 10° NNW 00:54:32 20° NNE 00:59:06 10° ENE visible
04 Mar - 02:33:31 10° NNW 02:39:35 42° NE 02:45:31 10° ESE visible
04 Mar - 04:16:56 10° NW 04:23:12 56° WSW 04:29:09 10° SSE visible
04 Mar - 06:03:34 10° W 06:05:19 11° W 06:06:40 10° WSW daylight
04 Mar - 17:23:34 10° ESE 17:23:55 10° E 17:24:40 10° E daylight
04 Mar - 19:00:20 10° SSW 19:05:56 56° ESE 19:12:04 10° NE visible
04 Mar - 20:43:56 10° WSW 20:49:33 41° NW 20:55:32 10° NNE visible
04 Mar - 22:30:14 10° WNW 22:34:38 19° NNW 22:39:05 10° NNE visible
05 Mar - 00:16:05 10° NNW 00:20:21 18° N 00:24:40 10° NE visible
05 Mar - 01:59:47 10° NNW 02:05:36 35° NE 02:11:19 10° E visible
05 Mar - 03:43:06 10° NW 03:49:31 73° WSW 03:55:37 10° SSE visible
05 Mar - 05:28:10 10° WNW 05:31:53 16° WSW 05:35:14 10° SW visible
05 Mar - 18:26:58 10° S 18:32:19 41° ESE 18:38:10 10° NE visible
05 Mar - 20:09:50 10° WSW 20:15:37 50° NW 20:21:48 10° NNE visible
05 Mar - 21:55:49 10° WNW 22:00:28 21° NNW 22:05:12 10° NNE visible
05 Mar - 23:42:03 10° NW 23:46:09 17° N 23:50:18 10° NE visible
06 Mar - 01:26:02 10° NNW 01:31:34 30° NNE 01:37:02 10° E visible
06 Mar - 03:09:18 10° NW 03:15:46 88° NE 03:21:57 10° SE visible
06 Mar - 04:53:41 10° WNW 04:58:25 22° WSW 05:02:48 10° SSW visible
06 Mar - 17:53:48 10° S 17:58:45 31° ESE 18:04:10 10° NE daylight
06 Mar - 19:35:52 10° SW 19:41:43 63° NW 19:48:03 10° NNE visible
06 Mar - 21:21:24 10° WNW 21:26:20 24° NNW 21:31:22 10° NNE visible
06 Mar - 23:07:55 10° NW 23:11:56 17° N 23:15:59 10° NE visible
07 Mar - 00:52:16 10° NNW 00:57:29 26° NNE 01:02:41 10° E visible
07 Mar - 02:35:32 10° NW 02:41:58 70° NE 02:48:08 10° SE visible
07 Mar - 04:19:29 10° NW 04:24:53 29° WSW 04:29:57 10° SSW visible
07 Mar - 17:20:51 10° SSE 17:25:14 23° ESE 17:30:01 10° ENE daylight
07 Mar - 19:02:00 10° SW 19:07:54 81° NW 19:14:17 10° NE visible
07 Mar - 20:47:03 10° W 20:52:14 27° NNW 20:57:35 10° NNE visible
07 Mar - 22:33:40 10° NW 22:37:42 17° N 22:41:47 10° NE visible
08 Mar - 00:18:28 10° NNW 00:23:21 22° NNE 00:28:16 10° ENE visible
08 Mar - 02:01:47 10° NNW 02:08:07 55° NE 02:14:11 10° ESE visible
08 Mar - 03:45:27 10° NW 03:51:19 39° WSW 03:56:51 10° S visible
08 Mar - 16:48:17 10° SE 16:51:45 17° ESE 16:55:36 10° ENE daylight
08 Mar - 18:28:17 10° SSW 18:34:08 80° SE 18:40:30 10° NE visible
08 Mar - 20:12:45 10° W 20:18:10 32° NNW 20:23:49 10° NNE visible
08 Mar - 21:59:20 10° NW 22:03:30 18° N 22:07:42 10° NNE visible
08 Mar - 23:44:36 10° NNW 23:49:12 20° NNE 23:53:50 10° ENE visible
09 Mar - 01:28:03 10° NNW 01:34:11 45° NE 01:40:08 10° ESE visible
09 Mar - 03:11:31 10° NW 03:17:42 51° WSW 03:23:32 10° S visible
09 Mar - 16:16:29 10° ESE 16:18:19 12° E 16:20:32 10° E daylight
09 Mar - 17:54:42 10° SSW 18:00:26 61° ESE 18:06:40 10° NE daylight
09 Mar - 19:38:31 10° WSW 19:44:09 39° NW 19:50:04 10° NNE visible
09 Mar - 21:24:56 10° WNW 21:29:18 19° NNW 21:33:41 10° NNE visible
09 Mar - 23:10:41 10° NNW 23:15:01 19° NNE 23:19:23 10° NE visible
10 Mar - 00:54:19 10° NNW 01:00:13 37° NE 01:05:58 10° ESE visible
10 Mar - 02:37:39 10° NW 02:44:02 67° WSW 02:50:03 10° SSE visible
10 Mar - 04:23:06 10° WNW 04:26:18 14° WSW 04:29:08 10° SW night (unlit)
10 Mar - 17:21:17 10° S 17:26:47 46° ESE 17:32:46 10° NE daylight
10 Mar - 19:04:23 10° WSW 19:10:11 47° NW 19:16:20 10° NNE visible
10 Mar - 20:50:30 10° WNW 20:55:07 21° NNW 20:59:46 10° NNE visible
10 Mar - 22:36:40 10° NNW 22:40:48 18° N 22:45:00 10° NE visible
